SCP
0 0 0 0 0 0 0 0 0 0 0 0 0 0 0 0 0 0 0 0 0 0 0 0 0 0 0 0 0 0 0 0
0 0 0 0 0 0 0 0 0 0 0 0 0 0 0 0 0 0 0 0 0 0 0 0 0 0 0 0 0 0 0 0
0 0 0 0 0 0 0 0 0 0 0 0 0 0 0 0 0 0 0 0 0 0 0 0 0 0 0 0 0 0 0 0
0 0 0 0 0 0 0 0 0 0 0 0 0 0 0 0 0 0 0 0 0 0 0 0 0 0 0 0 0 0 0 0
0 0 0 0 0 0 0 0 0 0 0 0 0 0 0 0 0 0 0 0 0 0 0 0 0 0 0 0 0 0 0 0
0 0 0 0 0 0 0 0 0 0 0 0 0 0 0 0 0 0 0 0 0 0 0 0 0 0 0 0 0 0 0 0
0 0 0 0 0 0 0 0 0 0 0 0 0 0 0 0 0 0 0 0 0 0 0 0 0 0 0 0 0 0 0 0
0 0 0 0 0 0 0 0 0 0 0 0 0 0 0 0 0 0 0 0 0 0 0 0 0 0 0 0 0 0 0 0
0 0 0 0 0 0 0 0 0 0 0 0 0 0 0 0 0 0 0 0 0 0 0 0 0 0 0 0 0 0 0 0
0 0 0 0 0 0 0 0 0 0 0 0 0 0 0 0 0 0 0 0 0 0 0 0 0 0 0 0 0 0 0 0
0 0 0 0 0 0 0 0 0 0 0 0 0 0 0 0 0 0 0 0 0 0 0 0 0 0 0 0 0 0 0 0
0 0 0 0 0 0 0 0 0 0 0 0 0 0 0 0 0 0 0 0 0 0 0 0 0 0 0 0 0 0 0 0
0 0 0 0 0 0 0 0 0 0 0 0 0 0 0 0 0 0 0 0 0 0 0 0 0 0 0 0 0 0 0 0
0 0 0 0 0 0 0 0 0 0 0 0 0 0 0 0 0 0 0 0 0 0 0 0 0 0 0 0 0 0 0 0
0 0 0 0 0 0 0 0 0 0 0 0 0 0 0 0 0 0 0 0 0 0 0 0 0 0 0 0 0 0 0 0
0 0 0 0 0 0 0 0 0 0 0 0 0 0 0 0 0 0 0 0 0 0 0 0 0 0 0 0 0 0 0 0
0 0 0 0 0 0 0 0 0 0 0 0 0 0 0 0 0 0 0 0 0 0 0 0 0 0 0 0 0 0 0 0
0 0 0 0 0 0 0 0 0 0 0 0 0 0 0 0 0 0 0 0 0 0 0 -0 0 0 0 0 0 0 0 0
0 0 0 0 0 0 0 0 0 0 0 0 0 0 0 0 0 0 0 0 0 0 0 0 0 0 0 0 0 0 0 0
0 0 0 0 0 0 0 0 0 0 0 0 0 0 0 0 0 0 0 0 0 0 0 0 0 0 0 0 0 0 0 0
Wind_Speed_500mb
65 74 79 84 91 80 74 74 74 71 65 63 62 60 58 55 52 49 46 44 41 38 36 37 37 39 41 41 39 41 40 38
53 59 64 72 75 70 68 68 68 67 63 61 60 58 57 54 50 47 43 42 42 39 39 39 40 42 45 44 43 46 44 41
45 53 63 67 67 64 64 64 63 63 61 59 56 54 52 49 46 44 42 42 42 41 40 40 42 42 43 43 42 42 38 36
51 56 58 58 57 57 56 58 58 56 55 52 50 48 47 44 42 42 42 42 41 41 40 38 37 37 35 35 35 37 35 34
53 54 52 52 52 52 53 50 50 50 48 46 45 44 42 42 42 42 42 43 41 40 38 37 36 36 34 34 34 35 33 35
48 52 54 52 52 49 46 45 43 44 43 41 40 39 37 38 39 41 42 41 41 41 38 37 34 33 33 33 32 33 31 33
50 50 53 51 47 45 41 39 39 36 33 33 33 33 32 33 35 38 40 41 42 41 40 37 35 33 33 32 32 33 32 33
46 46 46 49 47 43 37 35 32 30 28 27 28 29 30 31 33 36 36 39 40 42 41 40 38 37 36 35 38 37 34 33
42 43 44 44 45 43 40 34 30 28 27 27 29 31 33 34 33 33 34 35 36 37 39 41 42 42 42 42 43 43 41 39
37 42 42 41 38 35 32 28 24 22 23 23 24 26 28 29 28 31 34 34 35 36 38 40 41 40 42 44 47 48 47 44
36 39 40 37 32 29 27 22 21 20 18 17 18 19 22 23 24 27 27 28 30 31 32 34 34 33 35 38 42 46 46 44
37 38 35 34 30 27 22 21 21 19 19 19 20 20 18 19 21 22 21 22 24 25 27 28 30 29 33 35 38 43 42 42
34 32 29 25 22 19 16 17 16 17 17 17 16 16 16 16 15 15 15 15 18 19 21 24 23 23 24 27 29 32 36 38
22 25 24 20 16 15 14 18 17 16 17 16 14 12 11 9 10 8 7 9 11 13 15 20 21 20 23 21 20 21 25 28
15 16 18 20 22 23 21 20 18 16 12 10 10 11 10 9 8 6 4 3 4 6 9 10 11 13 14 19 24 29 31 32
12 14 16 17 17 18 17 15 14 14 15 15 14 13 11 8 6 4 3 2 3 6 8 8 8 10 13 14 17 20 22 24
11 11 13 14 15 16 16 15 15 16 15 14 12 10 9 7 5 3 1 2 4 7 9 10 11 14 15 18 20 21 22 27
10 12 12 13 13 13 13 12 12 12 12 10 9 7 5 4 5 9 10 12 13 15 18 20 20 22 22 25 26 29 30 34
7 8 9 10 10 10 10 12 12 12 12 12 12 12 12 15 17 19 21 23 24 25 31 32 30 32 35 36 38 42 41 40
8 10 11 10 9 11 15 16 17 18 19 21 22 23 25 27 30 32 36 38 39 37 36 38 43 44 46 46 51 52 52 51
Wind_Direction_500mb
227 220 218 216 204 203 206 206 204 207 209 210 210 213 215 220 225 231 236 241 244 246 250 254 256 258 259 260 258 262 258 252
206 208 209 199 195 196 198 199 199 201 204 206 207 210 217 222 227 231 234 236 241 245 248 253 256 257 258 259 260 259 258 253
196 192 184 184 187 188 192 195 198 200 200 202 208 213 219 223 226 229 232 237 240 243 245 247 251 253 253 254 254 252 252 251
173 174 175 179 183 184 190 192 194 199 203 204 209 214 219 222 227 231 232 237 240 245 248 248 249 249 248 250 251 251 250 249
170 172 177 180 183 186 189 196 198 202 206 211 214 218 221 224 227 232 234 236 237 242 246 249 247 247 248 250 252 251 248 247
177 176 178 181 184 189 193 198 204 208 209 212 216 222 226 228 229 232 233 234 235 238 242 245 247 249 250 251 251 252 249 245
184 185 183 185 191 192 193 195 197 201 206 213 218 223 228 232 233 233 233 234 237 240 243 245 248 248 250 250 249 251 248 248
195 195 195 190 188 183 184 193 199 204 211 218 223 226 230 233 236 237 236 237 239 241 244 247 248 246 246 246 249 250 250 250
197 194 187 181 173 177 188 197 206 214 220 222 227 231 233 234 236 238 239 241 242 243 245 247 248 247 245 246 248 250 251 251
193 187 184 182 183 183 189 193 201 210 220 226 229 232 235 238 240 243 243 243 246 247 247 249 248 248 247 245 247 250 253 253
188 186 187 184 188 188 187 187 207 215 219 226 233 236 238 240 241 240 239 240 243 246 247 248 251 249 246 245 247 251 255 257
182 182 185 187 185 186 194 199 199 201 208 213 218 222 225 230 233 236 240 243 247 248 251 253 254 250 248 244 242 248 254 258
176 180 182 185 190 190 186 191 196 203 207 209 213 217 219 224 231 238 239 244 252 254 251 249 247 247 249 248 240 247 254 259
177 178 180 182 178 181 186 202 198 197 198 200 201 205 209 215 230 242 253 259 264 261 253 244 241 242 245 241 235 239 250 260
169 169 173 176 184 188 193 192 189 184 174 182 186 190 192 197 205 214 228 260 269 274 263 265 279 282 264 247 246 241 246 253
165 179 190 187 183 182 181 178 169 164 164 168 167 164 158 150 141 123 86 22 330 313 315 313 311 288 271 266 266 262 261 264
206 188 187 188 182 178 175 174 170 165 166 165 162 159 156 149 137 107 43 350 319 311 310 303 298 285 285 278 273 276 275 275
194 186 184 193 183 180 181 184 183 183 188 186 192 199 206 234 275 290 288 287 290 291 287 285 283 280 279 278 275 272 271 273
204 191 195 192 193 200 207 215 221 227 234 243 251 255 261 266 270 275 275 275 276 278 278 278 276 275 274 273 271 269 269 274
217 207 200 205 224 236 244 248 251 254 259 262 264 269 273 276 279 281 282 283 283 277 268 274 273 270 270 269 268 273 274 275
Wind_Speed_850mb
65 74 79 84 91 80 74 74 74 71 65 63 62 60 58 55 52 49 46 44 41 38 36 37 37 39 41 41 39 41 40 38
53 59 64 72 75 70 68 68 68 67 63 61 60 58 57 54 50 47 43 42 42 39 39 39 40 42 45 44 43 46 44 41
45 53 63 67 67 64 64 64 63 63 61 59 56 54 52 49 46 44 42 42 42 41 40 40 42 42 43 43 42 42 38 36
51 56 58 58 57 57 56 58 58 56 55 52 50 48 47 44 42 42 42 42 41 41 40 38 37 37 35 35 35 37 35 34
53 54 52 52 52 52 53 50 50 50 48 46 45 44 42 42 42 42 42 43 41 40 38 37 36 36 34 34 34 35 33 35
48 52 54 52 52 49 46 45 43 44 43 41 40 39 37 38 39 41 42 41 41 41 38 37 34 33 33 33 32 33 31 33
50 50 53 51 47 45 41 39 39 36 33 33 33 33 32 33 35 38 40 41 42 41 40 37 35 33 33 32 32 33 32 33
46 46 46 49 47 43 37 35 32 30 28 27 28 29 30 31 33 36 36 39 40 42 41 40 38 37 36 35 38 37 34 33
42 43 44 44 45 43 40 34 30 28 27 27 29 31 33 34 33 33 34 35 36 37 39 41 42 42 42 42 43 43 41 39
37 42 42 41 38 35 32 28 24 22 23 23 24 26 28 29 28 31 34 34 35 36 38 40 41 40 42 44 47 48 47 44
36 39 40 37 32 29 27 22 21 20 18 17 18 19 22 23 24 27 27 28 30 31 32 34 34 33 35 38 42 46 46 44
37 38 35 34 30 27 22 21 21 19 19 19 20 20 18 19 21 22 21 22 24 25 27 28 30 29 33 35 38 43 42 42
34 32 29 25 22 19 16 17 16 17 17 17 16 16 16 16 15 15 15 15 18 19 21 24 23 23 24 27 29 32 36 38
22 25 24 20 16 15 14 18 17 16 17 16 14 12 11 9 10 8 7 9 11 13 15 20 21 20 23 21 20 21 25 28
15 16 18 20 22 23 21 20 18 16 12 10 10 11 10 9 8 6 4 3 4 6 9 10 11 13 14 19 24 29 31 32
12 14 16 17 17 18 17 15 14 14 15 15 14 13 11 8 6 4 3 2 3 6 8 8 8 10 13 14 17 20 22 24
11 11 13 14 15 16 16 15 15 16 15 14 12 10 9 7 5 3 1 2 4 7 9 10 11 14 15 18 20 21 22 27
10 12 12 13 13 13 13 12 12 12 12 10 9 7 5 4 5 9 10 12 13 15 18 20 20 22 22 25 26 29 30 34
7 8 9 10 10 10 10 12 12 12 12 12 12 12 12 15 17 19 21 23 24 25 31 32 30 32 35 36 38 42 41 40
8 10 11 10 9 11 15 16 17 18 19 21 22 23 25 27 30 32 36 38 39 37 36 38 43 44 46 46 51 52 52 51
Wind_Direction_850mb
227 220 218 216 204 203 206 206 204 207 209 210 210 213 215 220 225 231 236 241 244 246 250 254 256 258 259 260 258 262 258 252
206 208 209 199 195 196 198 199 199 201 204 206 207 210 217 222 227 231 234 236 241 245 248 253 256 257 258 259 260 259 258 253
196 192 184 184 187 188 192 195 198 200 200 202 208 213 219 223 226 229 232 237 240 243 245 247 251 253 253 254 254 252 252 251
173 174 175 179 183 184 190 192 194 199 203 204 209 214 219 222 227 231 232 237 240 245 248 248 249 249 248 250 251 251 250 249
170 172 177 180 183 186 189 196 198 202 206 211 214 218 221 224 227 232 234 236 237 242 246 249 247 247 248 250 252 251 248 247
177 176 178 181 184 189 193 198 204 208 209 212 216 222 226 228 229 232 233 234 235 238 242 245 247 249 250 251 251 252 249 245
184 185 183 185 191 192 193 195 197 201 206 213 218 223 228 232 233 233 233 234 237 240 243 245 248 248 250 250 249 251 248 248
195 195 195 190 188 183 184 193 199 204 211 218 223 226 230 233 236 237 236 237 239 241 244 247 248 246 246 246 249 250 250 250
197 194 187 181 173 177 188 197 206 214 220 222 227 231 233 234 236 238 239 241 242 243 245 247 248 247 245 246 248 250 251 251
193 187 184 182 183 183 189 193 201 210 220 226 229 232 235 238 240 243 243 243 246 247 247 249 248 248 247 245 247 250 253 253
188 186 187 184 188 188 187 187 207 215 219 226 233 236 238 240 241 240 239 240 243 246 247 248 251 249 246 245 247 251 255 257
182 182 185 187 185 186 194 199 199 201 208 213 218 222 225 230 233 236 240 243 247 248 251 253 254 250 248 244 242 248 254 258
176 180 182 185 190 190 186 191 196 203 207 209 213 217 219 224 231 238 239 244 252 254 251 249 247 247 249 248 240 247 254 259
177 178 180 182 178 181 186 202 198 197 198 200 201 205 209 215 230 242 253 259 264 261 253 244 241 242 245 241 235 239 250 260
169 169 173 176 184 188 193 192 189 184 174 182 186 190 192 197 205 214 228 260 269 274 263 265 279 282 264 247 246 241 246 253
165 179 190 187 183 182 181 178 169 164 164 168 167 164 158 150 141 123 86 22 330 313 315 313 311 288 271 266 266 262 261 264
206 188 187 188 182 178 175 174 170 165 166 165 162 159 156 149 137 107 43 350 319 311 310 303 298 285 285 278 273 276 275 275
194 186 184 193 183 180 181 184 183 183 188 186 192 199 206 234 275 290 288 287 290 291 287 285 283 280 279 278 275 272 271 273
204 191 195 192 193 200 207 215 221 227 234 243 251 255 261 266 270 275 275 275 276 278 278 278 276 275 274 273 271 269 269 274
217 207 200 205 224 236 244 248 251 254 259 262 264 269 273 276 279 281 282 283 283 277 268 274 273 270 270 269 268 273 274 275